{"data":{"norad_id":67338,"intl_designator":"2026-003E","name":"STARLINK-36413","alt_names":[],"object_type":"PAYLOAD","status":"ACTIVE","operator":null,"country":"US","launch_date":"2026-01-09","launch_site_code":"AFETR","launch_vehicle":null,"mission":null,"orbit_class":"UNKNOWN","rcs_meters":null,"size_class":null,"mass_kg":null,"dimensions":null,"purposes":["comms"],"wikipedia_slug":null,"has_3d_model":false,"image_url":null,"decayed_at":null,"tle_current":{"epoch":"2026-05-25T00:22:21.587232Z","epoch_age_seconds":69747,"freshness":"FRESH","line1":"1 67338U 26003E   26145.01552763  .00013152  00000+0  48660-3 0  9993","line2":"2 67338  43.0021 156.3143 0001475 280.7694  79.2992 15.27580853 20492","mean_motion":15.27580853,"eccentricity":0.0001475,"inclination_deg":43.0021,"raan_deg":156.3143,"arg_perigee_deg":280.7694,"mean_anomaly_deg":79.2992,"bstar":0.0004866,"rev_number":2049,"period_min":94.26669607517,"perigee_km":482.03451727955,"apogee_km":484.0585664244,"semimajor_km":6861.183541852,"source":"CELESTRAK","updated_at":"2026-05-25T13:38:21.522416Z"}}}